This demonstration page uses our WeatherBlox Daily Observations layout. Learn more.

Left ArrowRight Arrow

44.8408, -93.29828

Hourly Observations for June 7, 2017

Temp ( °F °C ) Dew Point ( °F °C ) Humidity (%) Winds ( mph kmh ) Pressure ( in mb ) Visibility ( mi km ) Precip ( " mm )
12:53 am 00:53 Mostly Clear 66 18.9 46 7.8 49 49 SE 5 7 30.07 1018 10 16 0.00 0.00
1:53 am 01:53 Mostly Clear 65 18.3 44 6.7 47 47 SE 5 7 30.08 1019 10 16 0.00 0.00
2:53 am 02:53 Mostly Clear 64 17.8 44 6.7 48 48 SSE 5 7 30.08 1019 10 16 0.00 0.00
3:53 am 03:53 Mostly Clear 66 18.9 44 6.7 45 45 Calm 30.08 1019 10 16 0.00 0.00
4:53 am 04:53 Mostly Clear 63 17.2 45 7.2 52 52 Calm 30.09 1019 10 16 0.00 0.00
5:53 am 05:53 Partly Cloudy 62 16.7 47 8.3 58 58 SE 3 6 30.10 1019 10 16 0.00 0.00
6:53 am 06:53 Partly Cloudy 65 18.3 47 8.3 52 52 SE 3 6 30.10 1019 10 16 0.00 0.00
7:53 am 07:53 Partly Cloudy 71 21.7 46 7.8 41 41 S 8 13 30.09 1019 10 16 0.00 0.00
8:53 am 08:53 Partly Cloudy 74 23.3 45 7.2 36 36 S 10 17 30.09 1019 10 16 0.00 0.00
9:53 am 09:53 Partly Cloudy 76 24.4 44 6.7 32 32 S 12 19 30.09 1019 10 16 0.00 0.00
10:53 am 10:53 Partly Cloudy 79 26.1 44 6.7 29 29 S 10 17 30.07 1018 10 16 0.00 0.00
11:53 am 11:53 Partly Cloudy 82 27.8 46 7.8 28 28 S 10 17 30.06 1018 10 16 0.00 0.00
11:59 am 11:59 Partly Cloudy 82 27.8 46 7.8 28 28 S 15 24 30.00 1016 10 16 0.00 0.00
12:53 pm 12:53 Partly Cloudy 84 28.9 46 7.8 27 27 S 9 15 30.05 1018 10 16 0.00 0.00
1:53 pm 13:53 Partly Cloudy 84 28.9 46 7.8 27 27 SSW 13 20 30.03 1017 10 16 0.00 0.00
2:53 pm 14:53 Mostly Sunny 86 30 46 7.8 25 25 S 10 17 30.01 1016 10 16 0.00 0.00
3:53 pm 15:53 Partly Cloudy 86 30 41 5 20 20 S 8 13 29.99 1016 10 16 0.00 0.00
4:53 pm 16:53 Partly Cloudy 86 30 43 6.1 22 22 SSE 16 26 29.97 1015 10 16 0.00 0.00
5:53 pm 17:53 Mostly Cloudy 87 30.6 45 7.2 23 23 S 13 20 29.93 1014 10 16 0.00 0.00
6:53 pm 18:53 Mostly Cloudy 86 30 46 7.8 25 25 S 14 22 29.93 1013 10 16 0.00 0.00
7:53 pm 19:53 Mostly Cloudy 84 28.9 47 8.3 27 27 SSE 10 17 29.92 1013 10 16 0.00 0.00
8:53 pm 20:53 Cloudy 83 28.3 45 7.2 26 26 S 9 15 29.91 1013 10 16 0.00 0.00
9:53 pm 21:53 Cloudy 80 26.7 46 7.8 30 30 SE 9 15 29.91 1013 10 16 0.00 0.00
10:53 pm 22:53 Cloudy 79 26.1 47 8.3 32 32 NE 6 9 29.93 1014 10 16 0.00 0.00
11:53 pm 23:53 Cloudy with Thunderstorms 72 22.2 58 14.4 61 61 Calm 29.94 1014 10 16 0.01 0.25

Powered by AerisWeather